This is the latest recevied weather packets stored in our database for station/object WV5G-13. If no packets are shown the sender has not sent any weather packets the latest 10 day(s).
| Time | Temp. | Humidity | Pressure | Rain* | Wind** | Luminosity | Snow |
|---|---|---|---|---|---|---|---|
| 1777332540 | 27.22° C | 11% | 1006.9 hPa | 0 mm | - | 249 W/m² | - |
| 1777332236 | 26.67° C | 12% | 1006.8 hPa | 0 mm | - | 263 W/m² | - |
| 1777331934 | 26.67° C | 12% | 1006.9 hPa | 0 mm | - | 275 W/m² | - |
| 1777331631 | 26.67° C | 12% | 1006.9 hPa | 0 mm | - | 289 W/m² | - |
| 1777331328 | 26.67° C | 11% | 1006.8 hPa | 0 mm | - | 309 W/m² | - |
| 1777331025 | 26.67° C | 12% | 1006.7 hPa | 0 mm | - | 332 W/m² | - |
| 1777330722 | 26.67° C | 13% | 1006.7 hPa | 0 mm | - | 353 W/m² | - |
| 1777330419 | 26.67° C | 14% | 1006.9 hPa | 0 mm | - | 372 W/m² | - |
| 1777330117 | 26.67° C | 13% | 1007 hPa | 0 mm | - | 384 W/m² | - |
| 1777329816 | 26.67° C | 12% | 1006.8 hPa | 0 mm | - | 393 W/m² | - |
| 1777329514 | 26.67° C | 14% | 1006.9 hPa | 0 mm | - | 402 W/m² | - |
| 1777329211 | 26.67° C | 14% | 1006.9 hPa | 0 mm | - | 408 W/m² | - |
| 1777328908 | 27.22° C | 12% | 1006.8 hPa | 0 mm | - | 422 W/m² | - |
| 1777328606 | 26.67° C | 13% | 1007 hPa | 0 mm | - | 442 W/m² | - |
| 1777328304 | 26.67° C | 13% | 1006.9 hPa | 0 mm | - | 462 W/m² | - |
| 1777328002 | 26.67° C | 13% | 1006.4 hPa | 0 mm | - | 480 W/m² | - |
| 1777327700 | 26.11° C | 13% | 1006.9 hPa | 0 mm | - | 500 W/m² | - |
| 1777327397 | 27.22° C | 13% | 1006.7 hPa | 0 mm | - | 519 W/m² | - |
| 1777327095 | 26.67° C | 13% | 1006.6 hPa | 0 mm | - | 541 W/m² | - |
| 1777326791 | 27.22° C | 13% | 1006.8 hPa | 0 mm | - | 560 W/m² | - |
| 1777326488 | 26.67° C | 13% | 1006.7 hPa | 0 mm | - | 576 W/m² | - |
| 1777326186 | 26.67° C | 14% | 1006.8 hPa | 0 mm | - | 591 W/m² | - |
| 1777325884 | 26.67° C | 14% | 1006.7 hPa | 0 mm | - | 603 W/m² | - |
| 1777325582 | 26.11° C | 14% | 1006.9 hPa | 0 mm | - | 612 W/m² | - |
| 1777325279 | 26.11° C | 15% | 1006.8 hPa | 0 mm | - | 624 W/m² | - |
* Rain latest hour (hover to see other rain measurements)
** Current wind speed in m/s (hover to see current wind gust speed)